﻿_id,日時,平均風速(m/s),平均風向,最大瞬間風速(m/s),最大風速時風向,気温(℃),湿度(%),10分間移動積算雨量(mm),1時間移動積算雨量(mm),日雨量(mm),累計雨量(mm),日射(日積算)(MJ/m2),日照(日積算)(min),現地気圧(hPa),海面気圧(hPa)
1,2021-09-13T00:00:00,0.9,北西,1.5,北西,22.2,95.5,0,0,0,0,8.02,9,1003.6,1017.1
2,2021-09-13T00:01:00,0.9,北西,1.5,北西,22.1,95.4,0,0,0,0,0,0,1003.6,1017.1
3,2021-09-13T00:02:00,0.9,北西,1.5,北西,22.1,95.3,0,0,0,0,0,0,1003.5,1017
4,2021-09-13T00:03:00,0.9,北西,1.5,北西,22.1,95.2,0,0,0,0,0,0,1003.5,1017
5,2021-09-13T00:04:00,0.8,北北西,1.5,北西,22.1,95.2,0,0,0,0,0,0,1003.5,1017
6,2021-09-13T00:05:00,0.8,北北西,1.5,北西,22.1,95.2,0,0,0,0,0,0,1003.6,1017.1
7,2021-09-13T00:06:00,0.7,北北西,1.5,北西,22.1,95.2,0,0,0,0,0,0,1003.6,1017.1
8,2021-09-13T00:07:00,0.7,北北西,1.5,北西,22.1,95.2,0,0,0,0,0,0,1003.6,1017.1
9,2021-09-13T00:08:00,0.7,北北西,1.5,北西,22.1,95.1,0,0,0,0,0,0,1003.6,1017.1
10,2021-09-13T00:09:00,0.7,北北西,1.5,北西,22.1,95.1,0,0,0,0,0,0,1003.6,1017.1
11,2021-09-13T00:10:00,0.6,北北西,1.4,北西,22.1,95.3,0,0,0,0,0,0,1003.6,1017.1
12,2021-09-13T00:11:00,0.6,北北西,1.4,北西,22,95.2,0,0,0,0,0,0,1003.6,1017.1
13,2021-09-13T00:12:00,0.5,北北西,1.3,北,22,94.9,0,0,0,0,0,0,1003.6,1017.1
14,2021-09-13T00:13:00,0.4,北北西,1.3,北,21.9,94.8,0,0,0,0,0,0,1003.6,1017.1
15,2021-09-13T00:14:00,0.4,北,1.3,北,22,95.1,0,0,0,0,0,0,1003.6,1017.1
16,2021-09-13T00:15:00,0.4,北,1.3,北,22,95.4,0,0,0,0,0,0,1003.6,1017.1
17,2021-09-13T00:16:00,0.4,北,1.3,北,22,95.4,0,0,0,0,0,0,1003.6,1017.1
18,2021-09-13T00:17:00,0.5,北北東,1.6,北北東,22.1,95.6,0,0,0,0,0,0,1003.6,1017.1
19,2021-09-13T00:18:00,0.5,北北東,1.6,北北東,22.2,95.6,0,0,0,0,0,0,1003.6,1017.1
20,2021-09-13T00:19:00,0.5,北北東,1.6,北北東,22.2,95.4,0,0,0,0,0,0,1003.6,1017.1
21,2021-09-13T00:20:00,0.6,北北東,1.6,北北東,22.2,95.3,0,0,0,0,0,0,1003.6,1017.1
22,2021-09-13T00:21:00,0.6,北北東,1.6,北北東,22.1,95.1,0,0,0,0,0,0,1003.6,1017.1
23,2021-09-13T00:22:00,0.6,北北東,1.6,北北東,22.2,94.9,0,0,0,0,0,0,1003.6,1017.1
24,2021-09-13T00:23:00,0.6,北北東,1.6,北北東,22.2,95.1,0,0,0,0,0,0,1003.6,1017.1
25,2021-09-13T00:24:00,0.6,北北東,1.6,北北東,22.1,94.5,0,0,0,0,0,0,1003.6,1017.1
26,2021-09-13T00:25:00,0.5,北北東,1.6,北北東,22.1,94.7,0,0,0,0,0,0,1003.6,1017.1
27,2021-09-13T00:26:00,0.5,北,1.6,北北東,22.2,94.8,0,0,0,0,0,0,1003.6,1017.1
28,2021-09-13T00:27:00,0.5,北,1.4,北東,22.1,94.9,0,0,0,0,0,0,1003.6,1017.1
29,2021-09-13T00:28:00,0.6,北,1.7,北北東,22.2,94.9,0,0,0,0,0,0,1003.6,1017.1
30,2021-09-13T00:29:00,0.6,北,2.1,北北東,22.2,94.8,0,0,0,0,0,0,1003.6,1017.1
31,2021-09-13T00:30:00,0.7,北,2.1,北北東,22.1,94.7,0,0,0,0,0,0,1003.5,1017
32,2021-09-13T00:31:00,0.8,北北東,2.1,北北東,22.2,94.7,0,0,0,0,0,0,1003.5,1017
33,2021-09-13T00:32:00,0.9,北北東,2.1,北北東,22.3,95,0,0,0,0,0,0,1003.5,1017
34,2021-09-13T00:33:00,1,北北東,2.1,北北東,22.2,94.5,0,0,0,0,0,0,1003.6,1017.1
35,2021-09-13T00:34:00,1.1,北北東,2.1,北北東,22.2,94.3,0,0,0,0,0,0,1003.6,1017.1
36,2021-09-13T00:35:00,1.2,北北東,2.1,北北東,22.2,94,0,0,0,0,0,0,1003.6,1017.1
37,2021-09-13T00:36:00,1.4,北北東,2.2,北東,22.2,94.2,0,0,0,0,0,0,1003.6,1017.1
38,2021-09-13T00:37:00,1.4,北北東,2.2,北東,22.1,94.1,0,0,0,0,0,0,1003.7,1017.2
39,2021-09-13T00:38:00,1.4,北東,2.2,北東,22.2,93.9,0,0,0,0,0,0,1003.7,1017.2
40,2021-09-13T00:39:00,1.4,北東,2.2,北東,22.2,94.2,0,0,0,0,0,0,1003.7,1017.2
41,2021-09-13T00:40:00,1.4,北東,2.2,北東,22.2,94.2,0,0,0,0,0,0,1003.7,1017.2
42,2021-09-13T00:41:00,1.5,北東,2.2,北東,22.2,93.9,0,0,0,0,0,0,1003.7,1017.2
43,2021-09-13T00:42:00,1.5,北東,2.4,北東,22.2,94.2,0,0,0,0,0,0,1003.7,1017.2
44,2021-09-13T00:43:00,1.5,北東,2.4,北東,22.1,93.7,0,0,0,0,0,0,1003.7,1017.2
45,2021-09-13T00:44:00,1.6,北東,2.4,北東,22.2,93.9,0,0,0,0,0,0,1003.7,1017.2
46,2021-09-13T00:45:00,1.6,北東,2.4,北東,22.1,93.8,0,0,0,0,0,0,1003.7,1017.2
47,2021-09-13T00:46:00,1.6,北東,2.4,北東,22.1,93.9,0,0,0,0,0,0,1003.6,1017.1
48,2021-09-13T00:47:00,1.6,北東,2.4,北東,22.1,94.1,0,0,0,0,0,0,1003.7,1017.2
49,2021-09-13T00:48:00,1.6,北東,2.4,北東,22.1,94.1,0,0,0,0,0,0,1003.6,1017.1
50,2021-09-13T00:49:00,1.6,北東,2.4,北東,22.1,94.1,0,0,0,0,0,0,1003.6,1017.1
51,2021-09-13T00:50:00,1.5,北東,2.4,北東,22,94.2,0,0,0,0,0,0,1003.6,1017.1
52,2021-09-13T00:51:00,1.5,北東,2.4,北東,22,94,0,0,0,0,0,0,1003.6,1017.1
53,2021-09-13T00:52:00,1.4,北東,2.2,北東,21.9,93.9,0,0,0,0,0,0,1003.6,1017.1
54,2021-09-13T00:53:00,1.3,北東,2.2,北東,21.9,94.1,0,0,0,0,0,0,1003.6,1017.1
55,2021-09-13T00:54:00,1.3,北東,2.1,北東,22,94.6,0,0,0,0,0,0,1003.6,1017.1
56,2021-09-13T00:55:00,1.2,北東,2,北東,22,94.7,0,0,0,0,0,0,1003.7,1017.2
57,2021-09-13T00:56:00,1.1,北東,2,北東,21.9,94.7,0,0,0,0,0,0,1003.7,1017.2
58,2021-09-13T00:57:00,0.9,北東,1.7,北北東,22,94.9,0,0,0,0,0,0,1003.7,1017.2
59,2021-09-13T00:58:00,0.9,北北東,1.7,北北東,21.9,94.8,0,0,0,0,0,0,1003.7,1017.2
60,2021-09-13T00:59:00,0.8,北北東,1.7,北北東,21.9,94.7,0,0,0,0,0,0,1003.7,1017.2
61,2021-09-13T01:00:00,0.7,北,1.7,北北東,21.9,94.9,0,0,0,0,0,0,1003.7,1017.2
62,2021-09-13T01:01:00,0.7,北,1.7,北北東,21.8,94.8,0,0,0,0,0,0,1003.7,1017.2
63,2021-09-13T01:02:00,0.7,北北西,1.7,北北東,21.8,95,0,0,0,0,0,0,1003.7,1017.2
64,2021-09-13T01:03:00,0.7,北北西,1.7,北北東,21.8,94.9,0,0,0,0,0,0,1003.7,1017.2
65,2021-09-13T01:04:00,0.6,北北西,1.6,北東,21.8,95.2,0,0,0,0,0,0,1003.7,1017.2
66,2021-09-13T01:05:00,0.6,北西,1.5,北西,21.9,95.3,0,0,0,0,0,0,1003.7,1017.2
67,2021-09-13T01:06:00,0.7,北西,1.5,北西,21.9,95.4,0,0,0,0,0,0,1003.7,1017.2
68,2021-09-13T01:07:00,0.8,北西,1.5,北西,21.9,95.4,0,0,0,0,0,0,1003.7,1017.2
69,2021-09-13T01:08:00,0.9,北西,1.5,北西,21.9,95.4,0,0,0,0,0,0,1003.7,1017.2
70,2021-09-13T01:09:00,0.9,北西,1.7,北北西,21.8,95.3,0,0,0,0,0,0,1003.7,1017.2
71,2021-09-13T01:10:00,0.9,北西,1.7,北北西,21.7,95.2,0,0,0,0,0,0,1003.8,1017.4
72,2021-09-13T01:11:00,0.9,北西,1.7,北北西,21.8,95.2,0,0,0,0,0,0,1003.7,1017.2
73,2021-09-13T01:12:00,0.9,北西,1.7,北北西,21.8,95.3,0,0,0,0,0,0,1003.7,1017.2
74,2021-09-13T01:13:00,0.9,北西,1.7,北北西,21.8,95.4,0,0,0,0,0,0,1003.7,1017.2
75,2021-09-13T01:14:00,0.9,北北西,1.7,北北西,21.7,95.4,0,0,0,0,0,0,1003.7,1017.3
76,2021-09-13T01:15:00,0.9,北北西,1.7,北北西,21.9,95.5,0,0,0,0,0,0,1003.7,1017.2
77,2021-09-13T01:16:00,0.9,北北西,1.7,北北西,21.9,95.6,0,0,0,0,0,0,1003.7,1017.2
78,2021-09-13T01:17:00,0.8,北,1.7,北北西,21.9,95.5,0,0,0,0,0,0,1003.7,1017.2
79,2021-09-13T01:18:00,0.8,北,1.7,北北西,21.9,95.5,0,0,0,0,0,0,1003.7,1017.2
80,2021-09-13T01:19:00,0.8,北,1.4,北西,21.7,95.3,0,0,0,0,0,0,1003.7,1017.3
81,2021-09-13T01:20:00,0.7,北北東,1.4,北西,21.7,95.2,0,0,0,0,0,0,1003.7,1017.3
82,2021-09-13T01:21:00,0.7,北北東,1.3,北,21.7,95.3,0,0,0,0,0,0,1003.7,1017.3
83,2021-09-13T01:22:00,0.8,北北東,1.5,北北東,21.7,95.4,0,0,0,0,0,0,1003.7,1017.3
84,2021-09-13T01:23:00,0.8,北東,1.5,北北東,21.8,95.5,0,0,0,0,0,0,1003.7,1017.2
85,2021-09-13T01:24:00,0.9,北東,1.5,北北東,21.9,95.5,0,0,0,0,0,0,1003.7,1017.2
86,2021-09-13T01:25:00,0.9,北東,1.7,北東,21.8,95.4,0,0,0,0,0,0,1003.7,1017.2
87,2021-09-13T01:26:00,1,北東,2,北東,21.8,95.4,0,0,0,0,0,0,1003.7,1017.2
88,2021-09-13T01:27:00,1,北東,2,北東,21.9,95.5,0,0,0,0,0,0,1003.7,1017.2
89,2021-09-13T01:28:00,1.1,北東,2,北東,21.8,95.4,0,0,0,0,0,0,1003.7,1017.2
90,2021-09-13T01:29:00,1.1,北東,2,北東,21.8,95.2,0,0,0,0,0,0,1003.7,1017.2
91,2021-09-13T01:30:00,1.2,北東,2,北東,21.8,95.2,0,0,0,0,0,0,1003.7,1017.2
92,2021-09-13T01:31:00,1.2,北東,2,北東,21.7,95.2,0,0,0,0,0,0,1003.7,1017.3
93,2021-09-13T01:32:00,1.2,北東,2,北東,21.7,95.2,0,0,0,0,0,0,1003.7,1017.3
94,2021-09-13T01:33:00,1.2,北東,2,北東,21.7,95.2,0,0,0,0,0,0,1003.7,1017.3
95,2021-09-13T01:34:00,1.1,北東,2,北東,21.8,95.3,0,0,0,0,0,0,1003.7,1017.2
96,2021-09-13T01:35:00,1,北北東,2,北東,21.8,95.3,0,0,0,0,0,0,1003.7,1017.2
97,2021-09-13T01:36:00,0.9,北北東,1.6,北東,21.7,95.2,0,0,0,0,0,0,1003.6,1017.2
98,2021-09-13T01:37:00,0.8,北,1.6,北東,21.6,95,0,0,0,0,0,0,1003.6,1017.2
99,2021-09-13T01:38:00,0.9,北,1.6,北東,21.5,95,0,0,0,0,0,0,1003.6,1017.2
100,2021-09-13T01:39:00,0.8,北北西,1.6,北東,21.4,95.3,0,0,0,0,0,0,1003.6,1017.2
101,2021-09-13T01:40:00,0.8,北西,1.5,西北西,21.3,95.2,0,0,0,0,0,0,1003.6,1017.2
102,2021-09-13T01:41:00,0.7,北西,1.5,西北西,21.4,95.5,0,0,0,0,0,0,1003.6,1017.2
103,2021-09-13T01:42:00,0.7,北西,1.5,西北西,21.5,95.8,0,0,0,0,0,0,1003.6,1017.2
104,2021-09-13T01:43:00,0.7,西北西,1.5,西北西,21.5,95.8,0,0,0,0,0,0,1003.6,1017.2
105,2021-09-13T01:44:00,0.8,西北西,1.5,西北西,21.5,95.8,0,0,0,0,0,0,1003.6,1017.2
106,2021-09-13T01:45:00,0.8,西北西,1.5,西北西,21.5,95.9,0,0,0,0,0,0,1003.6,1017.2
107,2021-09-13T01:46:00,0.8,西北西,1.5,西北西,21.5,95.8,0,0,0,0,0,0,1003.6,1017.2
108,2021-09-13T01:47:00,0.8,西北西,1.5,西北西,21.5,95.9,0,0,0,0,0,0,1003.6,1017.2
109,2021-09-13T01:48:00,0.7,西北西,1.3,西,21.5,96,0,0,0,0,0,0,1003.6,1017.2
110,2021-09-13T01:49:00,0.7,西北西,1.2,西,21.5,96,0,0,0,0,0,0,1003.6,1017.2
111,2021-09-13T01:50:00,0.6,北西,1.2,西,21.4,95.9,0,0,0,0,0,0,1003.6,1017.2
112,2021-09-13T01:51:00,0.6,北西,1.2,西,21.5,96,0,0,0,0,0,0,1003.6,1017.2
113,2021-09-13T01:52:00,0.5,北西,1.2,西,21.5,96.1,0,0,0,0,0,0,1003.6,1017.2
114,2021-09-13T01:53:00,0.4,北北西,1.2,西,21.5,96,0,0,0,0,0,0,1003.6,1017.2
115,2021-09-13T01:54:00,0.4,北北西,1.2,西,21.5,96,0,0,0,0,0,0,1003.6,1017.2
116,2021-09-13T01:55:00,0.3,北北西,1.2,西,21.5,96,0,0,0,0,0,0,1003.6,1017.2
117,2021-09-13T01:56:00,0.3,北北西,0.8,北西,21.5,95.9,0,0,0,0,0,0,1003.6,1017.2
118,2021-09-13T01:57:00,0.3,北北西,1.2,西北西,21.5,96,0,0,0,0,0,0,1003.5,1017.1
119,2021-09-13T01:58:00,0.3,北北西,1.5,西北西,21.5,96,0,0,0,0,0,0,1003.5,1017.1
120,2021-09-13T01:59:00,0.4,北北西,1.9,西北西,21.4,95.9,0,0,0,0,0,0,1003.5,1017.1
121,2021-09-13T02:00:00,0.6,北西,2,西北西,21.2,95.7,0,0,0,0,0,0,1003.5,1017.1
122,2021-09-13T02:01:00,0.8,北西,2,西北西,21.2,95.5,0,0,0,0,0,0,1003.6,1017.2
123,2021-09-13T02:02:00,0.9,北西,2,西北西,21.2,95.7,0,0,0,0,0,0,1003.6,1017.2
124,2021-09-13T02:03:00,1,西北西,2,西北西,21.3,96.1,0,0,0,0,0,0,1003.6,1017.2
125,2021-09-13T02:04:00,1.1,西北西,2,西北西,21.4,96.2,0,0,0,0,0,0,1003.6,1017.2
126,2021-09-13T02:05:00,1.2,西北西,2,西北西,21.3,96.2,0,0,0,0,0,0,1003.6,1017.2
127,2021-09-13T02:06:00,1.2,西北西,2,西北西,21.2,96,0,0,0,0,0,0,1003.6,1017.2
128,2021-09-13T02:07:00,1.2,西北西,2,西北西,21.1,96,0,0,0,0,0,0,1003.6,1017.2
129,2021-09-13T02:08:00,1.2,西北西,2,西北西,21.1,96.1,0,0,0,0,0,0,1003.7,1017.3
130,2021-09-13T02:09:00,1.1,西北西,2,西北西,21.2,96.3,0,0,0,0,0,0,1003.7,1017.3
131,2021-09-13T02:10:00,1,西北西,2,西北西,21.2,96.4,0,0,0,0,0,0,1003.7,1017.3
132,2021-09-13T02:11:00,0.9,西北西,1.9,西北西,21.3,96.5,0,0,0,0,0,0,1003.7,1017.3
133,2021-09-13T02:12:00,0.8,西北西,1.8,西北西,21.2,96.4,0,0,0,0,0,0,1003.7,1017.3
134,2021-09-13T02:13:00,0.7,西北西,1.8,西北西,21.1,96.3,0,0,0,0,0,0,1003.7,1017.3
135,2021-09-13T02:14:00,0.7,西北西,1.6,西北西,21.1,96.2,0,0,0,0,0,0,1003.7,1017.3
136,2021-09-13T02:15:00,0.7,西北西,1.6,西北西,21.1,96.3,0,0,0,0,0,0,1003.7,1017.3
137,2021-09-13T02:16:00,0.8,西北西,1.4,西北西,21.2,96.4,0,0,0,0,0,0,1003.7,1017.3
138,2021-09-13T02:17:00,0.9,西北西,1.5,西北西,21.2,96.5,0,0,0,0,0,0,1003.7,1017.3
139,2021-09-13T02:18:00,0.9,西北西,1.5,西北西,21.2,96.4,0,0,0,0,0,0,1003.7,1017.3
140,2021-09-13T02:19:00,0.9,西北西,1.5,西北西,21.3,96.5,0,0,0,0,0,0,1003.6,1017.2
141,2021-09-13T02:20:00,1,西北西,1.5,西北西,21.2,96.4,0,0,0,0,0,0,1003.6,1017.2
142,2021-09-13T02:21:00,1,西北西,1.5,西北西,21.2,96.3,0,0,0,0,0,0,1003.6,1017.2
143,2021-09-13T02:22:00,1,西北西,1.5,西北西,21.1,96.3,0,0,0,0,0,0,1003.6,1017.2
144,2021-09-13T02:23:00,0.9,西北西,1.5,西北西,21.1,96.3,0,0,0,0,0,0,1003.6,1017.2
145,2021-09-13T02:24:00,0.9,西北西,1.5,西北西,21.2,96.4,0,0,0,0,0,0,1003.6,1017.2
146,2021-09-13T02:25:00,0.9,西北西,1.5,西北西,21.1,96.4,0,0,0,0,0,0,1003.6,1017.2
147,2021-09-13T02:26:00,0.8,西北西,1.5,西北西,21.2,96.4,0,0,0,0,0,0,1003.6,1017.2
148,2021-09-13T02:27:00,0.7,西北西,1.3,西北西,21.2,96.5,0,0,0,0,0,0,1003.6,1017.2
149,2021-09-13T02:28:00,0.7,北西,1.3,西北西,21.2,96.5,0,0,0,0,0,0,1003.6,1017.2
150,2021-09-13T02:29:00,0.7,北西,1.3,西北西,21.2,96.5,0,0,0,0,0,0,1003.6,1017.2
151,2021-09-13T02:30:00,0.6,北西,1.3,西北西,21.2,96.5,0,0,0,0,0,0,1003.6,1017.2
152,2021-09-13T02:31:00,0.6,北西,1.1,西北西,21.2,96.6,0,0,0,0,0,0,1003.6,1017.2
153,2021-09-13T02:32:00,0.7,北西,1.2,北西,21.2,96.5,0,0,0,0,0,0,1003.6,1017.2
154,2021-09-13T02:33:00,0.7,北西,1.3,北西,21.1,96.5,0,0,0,0,0,0,1003.6,1017.2
155,2021-09-13T02:34:00,0.7,北西,1.3,北西,21.2,96.5,0,0,0,0,0,0,1003.6,1017.2
156,2021-09-13T02:35:00,0.7,北西,1.3,北西,21.2,96.5,0,0,0,0,0,0,1003.6,1017.2
157,2021-09-13T02:36:00,0.7,北西,1.3,北西,21.2,96.5,0,0,0,0,0,0,1003.6,1017.2
158,2021-09-13T02:37:00,0.7,北西,1.3,北西,21.1,96.4,0,0,0,0,0,0,1003.6,1017.2
159,2021-09-13T02:38:00,0.7,北西,1.3,北西,21.1,96.4,0,0,0,0,0,0,1003.6,1017.2
160,2021-09-13T02:39:00,0.6,北西,1.3,北西,21.1,96.4,0,0,0,0,0,0,1003.6,1017.2
161,2021-09-13T02:40:00,0.6,北西,1.3,北西,21.1,96.5,0,0,0,0,0,0,1003.6,1017.2
162,2021-09-13T02:41:00,0.6,北西,1.3,北西,21.2,96.7,0,0,0,0,0,0,1003.6,1017.2
163,2021-09-13T02:42:00,0.6,北西,1.3,北西,21.1,96.6,0,0,0,0,0,0,1003.6,1017.2
164,2021-09-13T02:43:00,0.5,北西,1.1,西北西,21.1,96.6,0,0,0,0,0,0,1003.6,1017.2
165,2021-09-13T02:44:00,0.5,北西,1.1,西北西,21.1,96.6,0,0,0,0,0,0,1003.6,1017.2
166,2021-09-13T02:45:00,0.5,北西,1,北西,21.2,96.6,0,0,0,0,0,0,1003.5,1017.1
167,2021-09-13T02:46:00,0.6,北西,1,北西,21.2,96.7,0,0,0,0,0,0,1003.5,1017.1
168,2021-09-13T02:47:00,0.6,北西,1.1,北西,21.3,96.8,0,0,0,0,0,0,1003.5,1017.1
169,2021-09-13T02:48:00,0.7,北西,1.1,北西,21.3,96.6,0,0,0,0,0,0,1003.5,1017.1
170,2021-09-13T02:49:00,0.7,北西,1.1,北西,21.2,96.5,0,0,0,0,0,0,1003.6,1017.2
171,2021-09-13T02:50:00,0.8,北西,1.2,北西,21.1,96.4,0,0,0,0,0,0,1003.6,1017.2
172,2021-09-13T02:51:00,0.8,北西,1.2,北西,21.2,96.5,0,0,0,0,0,0,1003.6,1017.2
173,2021-09-13T02:52:00,0.8,北西,1.2,北西,21.2,96.5,0,0,0,0,0,0,1003.6,1017.2
174,2021-09-13T02:53:00,0.9,北西,1.2,北西,21.2,96.5,0,0,0,0,0,0,1003.6,1017.2
175,2021-09-13T02:54:00,0.9,北西,1.3,西北西,21.2,96.5,0,0,0,0,0,0,1003.7,1017.3
176,2021-09-13T02:55:00,0.9,北西,1.3,西北西,21.2,96.5,0,0,0,0,0,0,1003.7,1017.3
177,2021-09-13T02:56:00,0.9,西北西,1.3,西北西,21.2,96.4,0,0,0,0,0,0,1003.7,1017.3
178,2021-09-13T02:57:00,1,西北西,1.4,西北西,21.1,96.3,0,0,0,0,0,0,1003.7,1017.3
179,2021-09-13T02:58:00,1,北西,1.5,北西,21.1,96.2,0,0,0,0,0,0,1003.7,1017.3
180,2021-09-13T02:59:00,1.1,北西,1.5,北西,21.1,96.4,0,0,0,0,0,0,1003.7,1017.3
181,2021-09-13T03:00:00,1.1,北西,1.5,北西,21.1,96.3,0,0,0,0,0,0,1003.7,1017.3
182,2021-09-13T03:01:00,1,北西,1.5,北西,21,96.3,0,0,0,0,0,0,1003.7,1017.3
183,2021-09-13T03:02:00,1,北西,1.5,北西,21,96.3,0,0,0,0,0,0,1003.7,1017.3
184,2021-09-13T03:03:00,1,北西,1.5,北西,21,96.4,0,0,0,0,0,0,1003.7,1017.3
185,2021-09-13T03:04:00,0.9,北西,1.5,北西,21,96.4,0,0,0,0,0,0,1003.7,1017.3
186,2021-09-13T03:05:00,0.9,北西,1.5,北西,21,96.5,0,0,0,0,0,0,1003.7,1017.3
187,2021-09-13T03:06:00,0.8,北西,1.5,北西,20.9,96.4,0,0,0,0,0,0,1003.7,1017.3
188,2021-09-13T03:07:00,0.7,北西,1.5,北西,20.9,96.4,0,0,0,0,0,0,1003.7,1017.3
189,2021-09-13T03:08:00,0.6,北西,1.5,西北西,21,96.6,0,0,0,0,0,0,1003.7,1017.3
190,2021-09-13T03:09:00,0.5,北西,1.3,北西,21,96.6,0,0,0,0,0,0,1003.7,1017.3
191,2021-09-13T03:10:00,0.5,北西,1,北西,21,96.6,0,0,0,0,0,0,1003.8,1017.4
192,2021-09-13T03:11:00,0.5,北西,1,北西,20.9,96.6,0,0,0,0,0,0,1003.8,1017.4
193,2021-09-13T03:12:00,0.5,北西,1,北西,21,96.7,0,0,0,0,0,0,1003.8,1017.4
194,2021-09-13T03:13:00,0.4,北西,0.9,北西,21,96.7,0,0,0,0,0,0,1003.8,1017.4
195,2021-09-13T03:14:00,0.4,北西,0.9,北西,20.9,96.6,0,0,0,0,0,0,1003.7,1017.3
196,2021-09-13T03:15:00,0.4,北西,0.9,北西,20.9,96.6,0,0,0,0,0,0,1003.8,1017.4
197,2021-09-13T03:16:00,0.4,北西,0.9,北西,20.9,96.7,0,0,0,0,0,0,1003.8,1017.4
198,2021-09-13T03:17:00,0.4,北西,0.9,北西,20.9,96.6,0,0,0,0,0,0,1003.7,1017.3
199,2021-09-13T03:18:00,0.4,北西,0.9,北西,20.9,96.7,0,0,0,0,0,0,1003.7,1017.3
200,2021-09-13T03:19:00,0.4,北西,0.9,北西,20.8,96.6,0,0,0,0,0,0,1003.7,1017.3
201,2021-09-13T03:20:00,0.4,北西,0.9,北西,20.9,96.7,0,0,0,0,0,0,1003.7,1017.3
202,2021-09-13T03:21:00,0.4,北西,0.9,北北東,20.9,96.8,0,0,0,0,0,0,1003.7,1017.3
203,2021-09-13T03:22:00,0.4,北北西,1.4,北東,20.9,96.8,0,0,0,0,0,0,1003.7,1017.3
204,2021-09-13T03:23:00,0.4,北北西,1.4,北東,21.1,97,0,0,0,0,0,0,1003.7,1017.3
205,2021-09-13T03:24:00,0.4,北北西,1.4,北東,20.9,96.8,0,0,0,0,0,0,1003.8,1017.4
206,2021-09-13T03:25:00,0.5,北北西,1.4,北東,20.9,96.7,0,0,0,0,0,0,1003.8,1017.4
207,2021-09-13T03:26:00,0.5,北北西,1.4,北東,20.9,96.6,0,0,0,0,0,0,1003.8,1017.4
208,2021-09-13T03:27:00,0.6,北,1.7,北,20.9,96.7,0,0,0,0,0,0,1003.8,1017.4
209,2021-09-13T03:28:00,0.6,北,1.7,北,21.1,96.9,0,0,0,0,0,0,1003.8,1017.4
210,2021-09-13T03:29:00,0.6,北,1.7,北,21.1,96.8,0,0,0,0,0,0,1003.8,1017.4
211,2021-09-13T03:30:00,0.6,北,1.7,北,20.9,96.6,0,0,0,0,0,0,1003.8,1017.4
212,2021-09-13T03:31:00,0.6,北,1.7,北,20.9,96.5,0,0,0,0,0,0,1003.8,1017.4
213,2021-09-13T03:32:00,0.6,北北西,1.7,北,20.9,96.4,0,0,0,0,0,0,1003.8,1017.4
214,2021-09-13T03:33:00,0.5,北北西,1.7,北,20.8,96.5,0,0,0,0,0,0,1003.8,1017.4
215,2021-09-13T03:34:00,0.6,北北西,1.7,北,20.8,96.5,0,0,0,0,0,0,1003.8,1017.4
216,2021-09-13T03:35:00,0.6,北西,1.7,北,20.8,96.5,0,0,0,0,0,0,1003.8,1017.4
217,2021-09-13T03:36:00,0.6,北西,1.7,北,20.9,96.6,0,0,0,0,0,0,1003.9,1017.5
218,2021-09-13T03:37:00,0.6,北西,1.5,北西,20.8,96.6,0,0,0,0,0,0,1003.9,1017.5
219,2021-09-13T03:38:00,0.6,北西,1.5,北西,20.9,96.7,0,0,0,0,0,0,1003.8,1017.4
220,2021-09-13T03:39:00,0.7,北西,1.5,北西,20.9,96.8,0,0,0,0,0,0,1003.8,1017.4
221,2021-09-13T03:40:00,0.7,北西,1.5,北西,20.8,96.7,0,0,0,0,0,0,1003.8,1017.4
222,2021-09-13T03:41:00,0.8,北西,1.5,北西,20.9,96.8,0,0,0,0,0,0,1003.8,1017.4
223,2021-09-13T03:42:00,0.8,北西,1.5,北西,20.8,96.7,0,0,0,0,0,0,1003.8,1017.4
224,2021-09-13T03:43:00,0.9,北西,1.5,北西,20.9,96.8,0,0,0,0,0,0,1003.9,1017.5
225,2021-09-13T03:44:00,0.9,北西,1.5,北西,20.8,96.8,0,0,0,0,0,0,1003.9,1017.5
226,2021-09-13T03:45:00,0.9,北西,1.5,北西,20.8,96.7,0,0,0,0,0,0,1003.9,1017.5
227,2021-09-13T03:46:00,0.9,北西,1.5,北西,20.9,96.7,0,0,0,0,0,0,1003.9,1017.5
228,2021-09-13T03:47:00,0.9,北西,1.5,北,20.8,96.6,0,0,0,0,0,0,1003.9,1017.5
229,2021-09-13T03:48:00,0.8,北北西,1.5,北,20.7,96.6,0,0,0,0,0,0,1003.9,1017.5
230,2021-09-13T03:49:00,0.8,北北西,1.5,北,20.7,96.5,0,0,0,0,0,0,1003.9,1017.5
231,2021-09-13T03:50:00,0.9,北北西,2.5,北,20.7,96.6,0,0,0,0,0,0,1003.9,1017.5
232,2021-09-13T03:51:00,0.9,北北西,2.5,北,20.8,96.8,0,0,0,0,0,0,1004,1017.6
233,2021-09-13T03:52:00,0.9,北北西,2.7,北,20.8,96.8,0,0,0,0,0,0,1004,1017.6
234,2021-09-13T03:53:00,0.9,北北西,2.7,北,20.8,96.8,0,0,0,0,0,0,1004,1017.6
235,2021-09-13T03:54:00,0.9,北北西,2.7,北,20.9,96.8,0,0,0,0,0,0,1004,1017.6
236,2021-09-13T03:55:00,0.9,北北西,2.7,北,20.9,96.9,0,0,0,0,0,0,1004,1017.6
237,2021-09-13T03:56:00,0.9,北北西,2.7,北,20.8,96.7,0,0,0,0,0,0,1004,1017.6
238,2021-09-13T03:57:00,0.9,北北西,2.7,北,20.7,96.6,0,0,0,0,0,0,1004,1017.6
239,2021-09-13T03:58:00,1,北北西,2.7,北,20.7,96.5,0,0,0,0,0,0,1004,1017.6
240,2021-09-13T03:59:00,1,北北西,2.7,北,20.7,96.5,0,0,0,0,0,0,1004,1017.6
241,2021-09-13T04:00:00,1,北西,2.7,北,20.7,96.7,0,0,0,0,0,0,1004,1017.6
242,2021-09-13T04:01:00,0.9,北西,2.7,北,20.7,96.8,0,0,0,0,0,0,1004,1017.6
243,2021-09-13T04:02:00,0.9,北西,1.8,北西,20.7,96.7,0,0,0,0,0,0,1004,1017.6
244,2021-09-13T04:03:00,0.9,北西,1.8,北西,20.7,96.8,0,0,0,0,0,0,1004,1017.6
245,2021-09-13T04:04:00,0.9,北西,1.8,北西,20.7,96.8,0,0,0,0,0,0,1003.9,1017.5
246,2021-09-13T04:05:00,0.9,北西,2.1,北北東,20.8,96.9,0,0,0,0,0,0,1003.9,1017.5
247,2021-09-13T04:06:00,1,北北西,2.1,北北東,20.8,96.9,0,0,0,0,0,0,1003.9,1017.5
248,2021-09-13T04:07:00,1.1,北北西,2.5,北,20.9,97,0,0,0,0,0,0,1003.9,1017.5
249,2021-09-13T04:08:00,1.1,北,2.5,北,20.8,97,0,0,0,0,0,0,1003.9,1017.5
250,2021-09-13T04:09:00,1.1,北,2.5,北,20.7,96.8,0,0,0,0,0,0,1003.9,1017.5
251,2021-09-13T04:10:00,1.1,北,2.5,北,20.8,96.8,0,0,0,0,0,0,1003.9,1017.5
252,2021-09-13T04:11:00,1.2,北,2.5,北,20.9,97,0,0,0,0,0,0,1003.9,1017.5
253,2021-09-13T04:12:00,1.2,北,2.5,北,20.8,96.8,0,0,0,0,0,0,1003.9,1017.5
254,2021-09-13T04:13:00,1.3,北北東,2.5,北,20.9,96.8,0,0,0,0,0,0,1004,1017.6
255,2021-09-13T04:14:00,1.3,北北東,2.5,北,20.8,96.7,0,0,0,0,0,0,1004,1017.6
256,2021-09-13T04:15:00,1.3,北北東,2.5,北,20.9,96.8,0,0,0,0,0,0,1004,1017.6
257,2021-09-13T04:16:00,1.1,北北東,2.5,北,20.9,96.8,0,0,0,0,0,0,1004.1,1017.7
258,2021-09-13T04:17:00,1,北,2.1,北東,20.8,96.6,0,0,0,0,0,0,1004.1,1017.7
259,2021-09-13T04:18:00,0.9,北,2.1,北東,20.8,96.4,0,0,0,0,0,0,1004.1,1017.7
260,2021-09-13T04:19:00,0.9,北,2.1,北東,20.8,96.5,0,0,0,0,0,0,1004.1,1017.7
261,2021-09-13T04:20:00,0.9,北,2.1,北東,20.8,96.5,0,0,0,0,0,0,1004.1,1017.7
262,2021-09-13T04:21:00,0.8,北北西,2.1,北東,20.8,96.5,0,0,0,0,0,0,1004.1,1017.7
263,2021-09-13T04:22:00,0.8,北北西,2.1,北東,20.7,96.6,0,0,0,0,0,0,1004.1,1017.7
264,2021-09-13T04:23:00,0.7,北西,1.4,北西,20.7,96.6,0,0,0,0,0,0,1004.1,1017.7
265,2021-09-13T04:24:00,0.6,北西,1.4,北西,20.7,96.6,0,0,0,0,0,0,1004.1,1017.7
266,2021-09-13T04:25:00,0.6,北西,1.4,北西,20.7,96.6,0,0,0,0,0,0,1004.1,1017.7
267,2021-09-13T04:26:00,0.6,北西,1.4,北西,20.6,96.6,0,0,0,0,0,0,1004,1017.6
268,2021-09-13T04:27:00,0.7,北西,1.7,北北西,20.7,96.8,0,0,0,0,0,0,1004,1017.6
269,2021-09-13T04:28:00,0.7,北西,1.7,北北西,20.8,96.9,0,0,0,0,0,0,1004,1017.6
270,2021-09-13T04:29:00,0.6,北西,1.7,北北西,20.7,96.9,0,0,0,0,0,0,1004,1017.6
271,2021-09-13T04:30:00,0.6,北西,1.7,北北西,20.8,96.9,0,0,0,0,0,0,1004,1017.6
272,2021-09-13T04:31:00,0.6,北北西,1.7,北北西,20.7,96.8,0,0,0,0,0,0,1004,1017.6
273,2021-09-13T04:32:00,0.6,北北西,1.8,北西,20.7,96.8,0,0,0,0,0,0,1004,1017.6
274,2021-09-13T04:33:00,0.7,北北西,1.8,北西,20.6,96.7,0,0,0,0,0,0,1004.1,1017.7
275,2021-09-13T04:34:00,0.7,北北西,1.8,北西,20.7,96.8,0,0,0,0,0,0,1004.1,1017.7
276,2021-09-13T04:35:00,0.8,北北西,1.9,北北東,20.7,96.9,0,0,0,0,0,0,1004.1,1017.7
277,2021-09-13T04:36:00,0.8,北,1.9,北北東,20.9,97.1,0,0,0,0,0,0,1004.1,1017.7
278,2021-09-13T04:37:00,0.9,北,1.9,北北東,20.9,97.1,0,0,0,0,0,0,1004.2,1017.8
279,2021-09-13T04:38:00,1,北,1.9,北北東,20.9,97,0,0,0,0,0,0,1004.2,1017.8
280,2021-09-13T04:39:00,1,北,1.9,北北東,20.9,96.9,0,0,0,0,0,0,1004.1,1017.7
281,2021-09-13T04:40:00,1.1,北,1.9,北北東,20.9,96.6,0,0,0,0,0,0,1004.1,1017.7
282,2021-09-13T04:41:00,1.2,北北東,2.1,北北東,20.8,96.5,0,0,0,0,0,0,1004.1,1017.7
283,2021-09-13T04:42:00,1.2,北北東,2.1,北北東,20.8,96.5,0,0,0,0,0,0,1004.2,1017.8
284,2021-09-13T04:43:00,1.3,北北東,2.1,北北東,20.8,96.5,0,0,0,0,0,0,1004.2,1017.8
285,2021-09-13T04:44:00,1.4,北北東,2.1,北北東,20.8,96.5,0,0,0,0,0,0,1004.2,1017.8
286,2021-09-13T04:45:00,1.3,北北東,2.1,北北東,20.9,96.5,0,0,0,0,0,0,1004.2,1017.8
287,2021-09-13T04:46:00,1.4,北北東,2.1,北北東,20.9,96.5,0,0,0,0,0,0,1004.2,1017.8
288,2021-09-13T04:47:00,1.3,北北東,2.1,北北東,20.8,96.3,0,0,0,0,0,0,1004.3,1017.9
289,2021-09-13T04:48:00,1.3,北北東,2.1,北北東,20.9,96.4,0,0,0,0,0,0,1004.3,1017.9
290,2021-09-13T04:49:00,1.3,北北東,2.1,北北東,20.8,96.3,0,0,0,0,0,0,1004.3,1017.9
291,2021-09-13T04:50:00,1.2,北北東,2.1,北北東,20.7,96.3,0,0,0,0,0,0,1004.3,1017.9
292,2021-09-13T04:51:00,1.2,北北東,2,北北東,20.8,96.3,0,0,0,0,0,0,1004.3,1017.9
293,2021-09-13T04:52:00,1.1,北東,2,北北東,20.8,96.2,0,0,0,0,0,0,1004.3,1017.9
294,2021-09-13T04:53:00,1,北東,2.2,北東,20.8,96.4,0,0,0,0,0,0,1004.3,1017.9
295,2021-09-13T04:54:00,1.1,北東,2.4,東北東,20.8,96.5,0,0,0,0,0,0,1004.3,1017.9
296,2021-09-13T04:55:00,1.1,北東,2.4,東北東,20.8,96.3,0,0,0,0,0,0,1004.3,1017.9
297,2021-09-13T04:56:00,1.2,北東,3.2,北東,20.8,96.4,0,0,0,0,0,0,1004.3,1017.9
298,2021-09-13T04:57:00,1.4,北東,3.2,北東,20.9,96.4,0,0,0,0,0,0,1004.3,1017.9
299,2021-09-13T04:58:00,1.5,北東,3.2,北東,20.9,96.5,0,0,0,0,0,0,1004.3,1017.9
300,2021-09-13T04:59:00,1.6,北東,3.2,北東,20.9,96.4,0,0,0,0,0,0,1004.3,1017.9
301,2021-09-13T05:00:00,1.7,北東,3.2,北東,21.1,96.5,0,0,0,0,0,0,1004.3,1017.9
302,2021-09-13T05:01:00,1.8,北東,3.2,北東,21,96.3,0,0,0,0,0,0,1004.3,1017.9
303,2021-09-13T05:02:00,1.9,北東,3.2,北東,21,96.2,0,0,0,0,0,0,1004.3,1017.9
304,2021-09-13T05:03:00,1.9,北東,3.2,北東,20.9,96,0,0,0,0,0,0,1004.3,1017.9
305,2021-09-13T05:04:00,1.9,北東,3.2,北東,21,96,0,0,0,0,0,0,1004.4,1018
306,2021-09-13T05:05:00,1.9,北東,3.2,北東,21,96,0,0,0,0,0,0,1004.4,1018
307,2021-09-13T05:06:00,1.9,北北東,3.1,北東,20.9,95.8,0,0,0,0,0,0,1004.4,1018
308,2021-09-13T05:07:00,1.8,北北東,3,北東,21,95.9,0,0,0,0,0,0,1004.4,1018
309,2021-09-13T05:08:00,1.7,北北東,3,北東,21,95.9,0,0,0,0,0,0,1004.4,1018
310,2021-09-13T05:09:00,1.6,北北東,2.7,北東,20.9,95.7,0,0,0,0,0,0,1004.4,1018
311,2021-09-13T05:10:00,1.5,北北東,2.3,北東,20.9,95.8,0,0,0,0,0,0,1004.4,1018
312,2021-09-13T05:11:00,1.4,北北東,2.3,北東,20.9,95.8,0,0,0,0,0,0,1004.4,1018
313,2021-09-13T05:12:00,1.4,北北東,2.2,北東,20.9,95.8,0,0,0,0,0,0,1004.4,1018
314,2021-09-13T05:13:00,1.3,北北東,2,北北東,20.9,95.8,0,0,0,0,0,0,1004.4,1018
315,2021-09-13T05:14:00,1.3,北北東,2,北北東,21,95.9,0,0,0,0,0,0,1004.4,1018
316,2021-09-13T05:15:00,1.2,北北東,2,北北東,21,96,0,0,0,0,0,0,1004.5,1018.1
317,2021-09-13T05:16:00,1.2,北,2,北北東,21,95.8,0,0,0,0,0,0,1004.5,1018.1
318,2021-09-13T05:17:00,1.1,北,1.9,北,21,95.8,0,0,0,0,0,0,1004.4,1018
319,2021-09-13T05:18:00,1.1,北,1.8,北西,20.8,95.6,0,0,0,0,0,0,1004.4,1018
320,2021-09-13T05:19:00,1.1,北北西,1.8,北西,20.8,95.5,0,0,0,0,0,0,1004.4,1018
321,2021-09-13T05:20:00,1.1,北北西,1.8,北西,20.7,95.5,0,0,0,0,0,0,1004.4,1018
322,2021-09-13T05:21:00,1,北西,1.8,北西,20.7,95.5,0,0,0,0,0,0,1004.4,1018
323,2021-09-13T05:22:00,0.9,北西,1.8,北西,20.6,95.5,0,0,0,0,0,0,1004.4,1018
324,2021-09-13T05:23:00,0.8,北西,1.8,北西,20.7,95.8,0,0,0,0,0,0,1004.4,1018
325,2021-09-13T05:24:00,0.7,北西,1.8,北西,20.7,96,0,0,0,0,0,0,1004.4,1018